Preview of NWS' New Version of Forecast
This preview is not operational and should not be used for support decisions.

Regional Weather Roundup (RWR)

Issued by National Weather Service (NWS)

                            
000
ASUS43 KMKX 170810
RWRWI 

WISCONSIN REGIONAL WEATHER ROUNDUP
NATIONAL WEATHER SERVICE MILWAUKEE/SULLIVAN WI
200 AM CST SUN FEB 17 2019

NOTE: "FAIR" INDICATES FEW OR NO CLOUDS BELOW 12,000 FEET WITH NO
SIGNIFICANT WEATHER AND/OR OBSTRUCTIONS TO VISIBILITY.

WIZ001-002-006>008-014>016-023>028-170900-
NORTHWEST WISCONSIN
  
CITY           SKY/WX    TMP DP  RH WIND       PRES   REMARKS
SUPERIOR ARPT  FAIR      15  10  79 E8        30.14R WCI   5          
ASHLAND        FAIR       9   6  88 E3        30.13S                  
HAYWARD        CLOUDY     9   6  88 N5        30.07R WCI   1          
SIREN          CLOUDY    16  10  77 NE3       30.08S                  
CUMBERLAND     CLOUDY    18   9  68 E6        30.05S WCI   9          
RICE LAKE      CLOUDY    18  10  73 E10       30.08S WCI   6          
CHETEK         MOCLDY    16   8  72 E5        30.07S WCI   8          
LADYSMITH      MOCLDY    11   5  75 CALM      30.09R                  
EAU CLAIRE     FAIR      12   6  77 NE7       30.06F WCI   1          
MENOMONIE      FAIR      11   5  77 E5        30.06F WCI   3          
NEW RICHMOND   CLOUDY    16   8  68 E8        30.04S WCI   5          
OSCEOLA        MOCLDY    19  10  70 E8        30.08S WCI   8          
$$
 
WIZ003>005-009-010-017-018-170900-
NORTH CENTRAL WISCONSIN
  
CITY           SKY/WX    TMP DP  RH WIND       PRES   REMARKS
MANITOWISH WTR NOT AVBL                                               
ARBOR VITAE    FAIR      14  10  85 CALM      30.04S                  
WOODRUFF       FAIR      14  10  85 CALM      30.04S                  
RHINELANDER    FAIR       9   5  84 E8        30.05R WCI  -3          
EAGLE RIVER    FAIR       8   5  86 E5        30.04F WCI   0          
LAND O LAKES   MOCLDY     5   2  86 CALM      30.07S                  
PHILLIPS       MOCLDY     4   2  92 CALM      30.05R                  
TOMAHAWK       CLOUDY     1  -2  87 CALM      30.06R                  
MEDFORD        CLOUDY    11   6  79 E5        30.05R WCI   3          
MERRILL        CLOUDY     5   2  86 CALM      30.08R                  
$$
 
WIZ029-030-035-036-043>047-170900-
CENTRAL WISCONSIN
  
CITY           SKY/WX    TMP DP  RH WIND       PRES   REMARKS
WAUSAU         CLOUDY    13   7  77 E3        30.06R                  
MOSINEE        FLURRIES  14  10  85 NE3       30.07R                  
MARSHFIELD     CLOUDY    14   8  77 E6        30.04S WCI   5          
STEVENS POINT  CLOUDY    13   9  82 NE5       30.07S WCI   5          
WAUPACA        CLOUDY    19  12  73 N7        30.08R WCI  10          
WAUTOMA        CLOUDY    17  12  80 NE6       30.07R WCI   9          
WISC RAPIDS    CLOUDY    15   7  70 NE6       30.06S WCI   6          
CAMP DOUGLAS   CLOUDY    17  13  85 NE5       30.02F WCI  10          
$$
 
WIZ011>013-019>022-031-037>040-048>050-170900-
NORTHEAST WISCONSIN
  
CITY           SKY/WX    TMP DP  RH WIND       PRES   REMARKS
ANTIGO         CLOUDY    11   8  85 E7        30.05S WCI   1          
SHAWANO        CLOUDY    16  10  79 CALM      30.11R                  
OCONTO         CLOUDY    17  10  75 NE7       30.11R WCI   8          
STURGEON BAY   CLOUDY    19  14  81 CALM      30.09S                  
GREEN BAY      CLOUDY    17  11  77 N12       30.09R WCI   4          
MANITOWOC      CLOUDY    25  18  74 E14       30.08R WCI  13          
APPLETON       CLOUDY    19  10  68 NE8       30.05R WCI   9          
CLINTONVILLE   CLOUDY    16  10  77 N5        30.10R WCI   8          
OSHKOSH        CLOUDY    18  13  80 N9        30.05R WCI   7          
$$
 
WIZ032>034-041-042-053>061-170900-
SOUTHWEST WISCONSIN
  
CITY           SKY/WX    TMP DP  RH WIND       PRES   REMARKS
LA CROSSE      CLOUDY    20  13  74 NE5       30.02F WCI  13          
SPARTA         CLOUDY    18  13  82 E7        30.03F WCI   8          
VIROQUA        CLOUDY    17  15  93 E8        29.97F WCI   7          
BOSCOBEL       CLOUDY    22  15  75 NE5       30.01F WCI  16          
PRAIRIE DU CHI CLOUDY    22  15  72 NE12      29.96F WCI  11          
PLATTEVILLE    CLOUDY    24  22  91 E10       29.95F WCI  13          
$$

WIZ056-057-062-063-064-067-068-170900-
SOUTH CENTRAL WISCONSIN
  
CITY           SKY/WX    TMP DP  RH WIND       PRES   REMARKS
REEDSBURG      CLOUDY    18  13  80 NE8       30.02F WCI   8          
BARABOO/DELLS  CLOUDY    18  13  81 NE9       30.01F WCI   7          
LONE ROCK      CLOUDY    22  16  78 NE8       30.01F WCI  12          
MINERAL POINT  CLOUDY    25  21  86 E6        29.96S WCI  18          
MADISON        CLOUDY    21  16  81 MISG      29.99F                  
MIDDLETON      CLOUDY    22  18  85 NE7       30.00F WCI  13          
WATERTOWN      CLOUDY    24  20  82 E3        30.00F                  
MONROE         CLOUDY    24  19  78 MISG      29.94F                  
JANESVILLE     CLOUDY    28  21  74 E9        29.97F WCI  20          
$$
 
WIZ051-052-058>065-066-070>072-170900-
SOUTHEAST WISCONSIN
  
CITY           SKY/WX    TMP DP  RH WIND       PRES   REMARKS
MILWAUKEE      CLOUDY    27  17  66 E17       30.03R WCI  14          
WAUKESHA       CLOUDY    25  18  74 E8        30.01F WCI  16          
MILWAUKEE/TIMM CLOUDY    27  18  69 E7        30.03S WCI  19          
RACINE         CLOUDY    27  18  69 E10       30.04R WCI  17          
KENOSHA        CLOUDY    27  20  75 E9        30.00S WCI  18          
FOND DU LAC    CLOUDY    21  16  81 NE10      30.04R WCI  10          
SHEBOYGAN      FAIR      25  17  72 E10       30.05R WCI  15          
WEST BEND      CLOUDY    27  21  80 E9        30.03R WCI  17          
JUNEAU         CLOUDY    22  18  84 N3        30.02F                  
$$

LSZ147-162-170900-
LAKE SUPERIOR
  
STATION/POSITION TIME  TEMP    WIND        PRES    WAVE
                       AIR SEA DIR/SP/G            HT/PER
                 (UTC) (F)     (DEG/KT/KT) (MB)    (FT/S)
DEVILS ISLAND    0800   19      80/ 17/ 18 1022.5S
SAXON HARBOR     0740    6     190/  2/  2 1020.3R
$$
 
LMZ867-665-643>646-170900-
LAKE MICHIGAN
  
STATION/POSITION TIME  TEMP    WIND        PRES    WAVE
                       AIR SEA DIR/SP/G            HT/PER
                 (UTC) (F)     (DEG/KT/KT) (MB)    (FT/S)
NORTHPORT PIER   0804   18      10/  3/  6 1020.0
KEWAUNEE LAKESHO 0748   25      90/ 15/ 19 1017.8R
SHEBOYGAN LAKESH 0800   26     100/ 14/ 15 1018.5R
PORT WASHINGTON  0740   30     120/ 14/ 18 1018.3R
MILWAUKEE LAKESH 0750   28      90/ 17/ 18   N/A
KENOSHA   LAKESH 0800   27     140/ 12/ 16 1016.3
$$

TC  - TEMPERATURE IN CELSIUS
VSB - VISIBILITY IN STATUTE MILES
WCI - WIND CHILL INDEX
HX  - HEAT INDEX